Rechercher aéroport 
image banner adimage banner adimage banner ad
image banner ad

02PA - Lag Iii

Situé à Monroeville, United States

ICAO - 02PA, IATA -

Données fournies par Airmate  

Information générale

Coordonnées: N40°27'48" W79°46'5"
Élévation : 1070 feet MSL.
Variation magnétique : -09° East
Voir autres Aéroports à Pennsylvania

Données opérationnelles

Special qualification required
Heure actuelle UTC:
Heure actuelle locale:
Météo à : KAGC - Allegheny County ( 18 km )
METAR: KAGC 291602Z 21011KT 8SM VCTS FEW048 BKN110 24/20 A2993 RMK AO2 LTG DSNT W T02440200
TAF: KAGC 291545Z 2916/3012 23010KT P6SM -SHRA OVC035 TEMPO 2916/2918 2SM TSRA OVC025CB FM292000 24010G20KT P6SM VCTS BKN040CB FM300000 29010KT P6SM BKN040 FM300800 32005KT P6SM BKN020
Voir NOTAMs / SUP AIP / TFR affectant cet aéroport [VIEW]
Fréquences de communication: [VIEW]

Pistes:

Coordonnées de l'aéroport

Adresse: Monroeville United States

Vue satellite de 02PA